{"data":{"norad_id":66002,"intl_designator":"2025-231H","name":"HULIANWANG DIGUI-94","alt_names":[],"object_type":"PAYLOAD","status":"ACTIVE","operator":null,"country":"PRC","launch_date":"2025-10-16","launch_site_code":"WSC","launch_vehicle":null,"mission":null,"orbit_class":"UNKNOWN","rcs_meters":null,"size_class":null,"mass_kg":null,"dimensions":null,"purposes":[],"wikipedia_slug":null,"has_3d_model":false,"image_url":null,"decayed_at":null,"tle_current":{"epoch":"2026-05-25T01:02:24.559584Z","epoch_age_seconds":81822,"freshness":"FRESH","line1":"1 66002U 25231H   26145.04333981 -.00000103  00000+0  44664-4 0  9998","line2":"2 66002  50.0064 258.5982 0000943 151.1397 208.9528 13.29325315 29811","mean_motion":13.29325315,"eccentricity":9.43e-5,"inclination_deg":50.0064,"raan_deg":258.5982,"arg_perigee_deg":151.1397,"mean_anomaly_deg":208.9528,"bstar":4.4664e-5,"rev_number":2981,"period_min":108.32562832823,"perigee_km":1148.5993196036,"apogee_km":1150.018995949,"semimajor_km":7527.4461577763,"source":"CELESTRAK","updated_at":"2026-05-25T13:38:05.885050Z"}}}